STARLINK-38089

Last updated on Sun Aug 09 2026 00:02:04 GMT+0000 (Coordinated Universal Time)

1 69985U 26159L 26220.54899949 .00127338 00000+0 83956-3 0 9996 2 69985 97.2835 60.5223 0003439 82.0309 278.1346 15.75249880 5704
UTC large
Height (km)
Speed (km/s)
/
Latitude / Longitude
Inclination (degrees)
Orbital Period (minutes)
Azimuth
Elevation
Range (km)
Doppler Factor

Next 0 passes for location: London (51.5072 / 0.1276)

No passes found over London.
STARLINK-38089